COSMOS 1275 DEB, 42145

Orbit data source: Space-Track

COSMOS 1275 DEB, 42145 is space debris in LEO originally from a launch on Thu, 04 Jun 1981 UTC launched from the Plesetsk Missile And Space Complex (PKMTR). Debris objects in space refer to the collection of defunct objects orbiting the Earth. Examples of debris include non-operational satellites, rocket bodies, and fragments generated from explosions, collisions, or faulty payload assembly.

Loading next visibility...
Identifier
42145, 1981-053RH
Orbit
LEO
Country
Flag of CISCIS
Related business
Manufacturer
Unknown
Mission
Spacecraft
Bus & Motor
Unknown
Mass
Unknown
Launch date (UTC)
1981-06-04 (45 years ago)
Launch vehicle
Unknown
Launch site
Plesetsk Missile And Space Complex (PKMTR)
Object type
Payload
Rocket body
Debris
Shape & HBR
Unknown shape, 0.1 m
Radar Cross Section
Small (<0.1 m²)

Expand to show TLE details & history
Last TLE update: 5 days ago

TLE from 5 days ago
0 COSMOS 1275 DEB
1 42145U 81053RH  26067.79308490  .00143721  00000-0  90121-2 0  9997
2 42145  83.3308 196.5935 0009740 282.8960  77.1182 15.08606043648890
Epoch: 2026-03-08T19:02Z
TLE epoch observation values (Epoch: 2026-03-08T19:02:02.535Z)
Latitude
-0.00008°
Longitude
104.58764°
Altitude
542.057 km
Speed
7.592 km/s
True Right ascension
13h 06m 22s
True Declination
0° 00' 00"
Sunlit
Object was in full shadow at epoch
Visualization orbit readout
Latitude
Unknown
Longitude
Unknown
Altitude
Unknown
Speed
Unknown
Apparent Right ascension
Unknown
Apparent Declination
Unknown
Sunlit
N/A
Visualization observer readout
Local Sidereal Time
12:35:46
Azimuth
Unknown
Elevation
Unknown
Doppler factor
Unknown
Orbital elements
Apogee altitude
544.146 km
Perigee altitude
530.674 km
Semi-major axis
6,915.547 km
Eccentricity
0.00097
Inclination
83.3308°
RAAN
196.5935°
Arg. of periapsis
282.896°
True anomaly
77.22703°
Mean anomaly
77.1182°
Eccentric anomaly
77.17261°
Mean motion
3.77401 °/min
Orbital period
95.39 mins
BSTAR
0.0090121
Loading maneuver chart data...
Computing Atmospheric mass density...
Loading historical data...
Loading historical data...
Loading historical data...
Loading historical data...
Loading historical data...
Loading historical data...
Loading historical data...

Documentation

Showing up to 5 results
|